Regional Weather Roundup
Issued by NWS

Home | Current Version | Previous Version | Graphics & Text | Print | Product List | Glossary Off
Versions: 1 2 3 4 5 6 7 8 9 10 11 12 13 14 15 16 17 18 19 20 21 22 23 24 25 26 27 28 29 30 31 32 33 34 35 36 37 38 39 40 41 42 43 44 45 46 47 48 49 50

000
ASUS43 KDTX 210810
RWRMI
MICHIGAN HOURLY REGIONAL WEATHER ROUNDUP
NATIONAL WEATHER SERVICE DETROIT/PONTIAC MI
400 AM EDT SAT OCT 21 2017

NOTE: "FAIR" INDICATES FEW OR NO CLOUDS BELOW 12,000 FEET WITH NO
SIGNIFICANT WEATHER AND/OR OBSTRUCTION TO VISIBILITY.

MIZ047>049-052>055-059>063-066>070-074>076-081>083-210900-
SOUTHEAST LOWER MICHIGAN

CITY           SKY/WX    TMP DP  RH WIND       PRES   REMARKS
ADRIAN         CLOUDY    50  48  93 W3        30.18R
ALMA           CLOUDY    55  49  82 S6        30.13S
ANN ARBOR      PTCLDY    41  41 100 CALM      30.17R FOG
BAD AXE        CLOUDY    53  46  77 S6        30.15S
CARO           CLOUDY    55  48  75 SW3       30.14S
DETROIT CITY   PTCLDY    55  47  74 S5        30.17S
DETROIT        CLOUDY    52  47  83 CALM      30.18R
FLINT          CLOUDY    56  49  77 S6        30.15S
GROSSE ILE     PTCLDY    57  52  84 S7        30.17S
HILLSDALE      CLOUDY    55  48  76 S5        30.17R
HOWELL         CLOUDY    53  49  86 SE6       30.15S

CITY           SKY/WX    TMP DP  RH WIND       PRES   REMARKS
JACKSON        PTCLDY    56  49  77 CALM      30.16R
LAMBERTVILLE   CLOUDY    52  47  83 S3        30.17S
LANSING        CLOUDY    56  48  74 S3        30.15R
LAPEER         FAIR      47  46  95 S3        30.16S
MASON          PTCLDY    55  49  80 CALM      30.15R
MONROE         PTCLDY    49  45  87 CALM      30.17S
MT. CLEMENS    PTCLDY    47  47 100 CALM      30.16S
PONTIAC        CLOUDY    51  47  86 CALM      30.16S
PORT HOPE        N/A     60  48  64 VRB5      30.11S
PORT HURON     CLOUDY    48  45  87 S3        30.17S
TRI CITIES     CLOUDY    57  51  80 S7        30.13S
MIDLAND        FAIR      55  50  83 CALM      30.12S
TROY           CLOUDY    51  47  84 CALM      30.18S
SAGINAW HB     CLOUDY    54  48  82 S6        30.13S
$$
MIZ043>046-050>051-056>058-064>065-071>073-077>080-210900-
SOUTHWEST LOWER MICHIGAN

CITY           SKY/WX    TMP DP  RH WIND       PRES   REMARKS
BATTLE CREEK   CLOUDY    57  49  74 S9        30.14S
BENTON HARBOR  CLOUDY    60  48  64 SE7       30.09F
BIG RAPIDS     CLOUDY    51  49  92 SE7       30.10S
COLDWATER      CLOUDY    57  49  73 CALM      30.15S
FREMONT        FAIR      56  49  77 S5        30.08S
HOLLAND        PTCLDY    55  48  77 S5        30.10S
GRAND RAPIDS   CLOUDY    55  50  83 S8        30.11S
IONIA          FAIR      54  49  83 S3        30.12S
KALAMAZOO      CLOUDY    58  48  69 S5        30.13S
LUDINGTON      CLOUDY    65  49  56 S12G22    30.04S
MARSHALL       CLOUDY    57  48  72 S3        30.14S
MOUNT PLEASANT CLOUDY    55  50  81 CALM      30.11S
MUSKEGON       CLOUDY    65  51  60 S16       30.09R
SOUTH HAVEN    CLOUDY    60  49  67 S5        30.10S
$$
MIZ016>042-210900-
NORTHERN LOWER MICHIGAN

CITY           SKY/WX    TMP DP  RH WIND       PRES   REMARKS
ALPENA         CLOUDY    44  43  96 CALM      30.08S
BEAVER ISLAND  CLOUDY    65  51  62 S8        30.02R
BELLAIRE       PTCLDY    48  46  95 CALM      30.06S
CADILLAC       CLOUDY    58  47  67 S5        30.09S
CHARLEVOIX     CLOUDY    60  50  69 SE6       30.06F
FRANKFORT      CLOUDY    67  50  52 S10       30.04R
GAYLORD        CLOUDY    55  47  74 S5        30.09R
GRAYLING       PTCLDY    44  42  90 CALM      30.11R
HARBOR SPRINGS PTCLDY    62  48  61 SW7       30.04S
HOUGHTON LAKE  PTCLDY    48  45  89 E3        30.11S
MANISTEE       CLOUDY    51  48  89 E6        30.05S
OSCODA         CLOUDY    53  48  85 SW7       30.10S
PELLSTON       PTCLDY    64  50  60 VRB6      30.05S
ROGERS CITY    PTCLDY    60  49  68 SW10      30.06S
TRAVERSE CITY  PTCLDY    66  49  54 VRB6      30.03S
$$
MIZ007>008-015-210900-
EASTERN UPPER MICHIGAN

CITY           SKY/WX    TMP DP  RH WIND       PRES   REMARKS
KINROSS        CLOUDY    53  48  83 S6        30.03F
MACKINAC ISLAN PTCLDY    63  49  60 S9        30.03S
NEWBERRY       CLOUDY    60  55  84 S13       30.00R
S. S. MARIE    PTCLDY    50  48  93 E3        30.03S
MUNISING         N/A     63  52  67 S9        29.93R
$$
MIZ004>006-011>014-085-210900-
CENTRAL UPPER MICHIGAN

CITY           SKY/WX    TMP DP  RH WIND       PRES   REMARKS
MANISTIQUE     MOCLDY    57  51  81 S5        29.99R
ESCANABA       CLOUDY    59  54  83 S8        29.94F
MENOMINEE      CLOUDY    62  50  64 S8        29.96S
SAWYER-GWINN   CLOUDY    55  49  79 S12       29.93R
$$
MIZ001>003-009>011-084-210900-
WESTERN UPPER MICHIGAN

CITY           SKY/WX    TMP DP  RH WIND       PRES   REMARKS
IRON MOUNTAIN  CLOUDY    57  46  66 S7        29.92R
HOUGHTON       CLOUDY    62  43  49 S7        29.83S
COPPER HARBOR    N/A     63  45  51 SW6       29.83S
IRONWOOD       MOCLDY    64  44  48 S17G24    29.80F
$$

ABBREVIATIONS USED IN REMARKS
   TC - TEMPERATURE IN CELSIUS
  WCI - WIND CHILL INDEX
   HX - HEAT INDEX
  VSB - VISIBILITY





USA.gov is the U.S. government's official web portal to all federal, state and local government web resources and services.